When you browse on this site, cookies collect data to enhance your experience and personalize the content and advertising you see.
Visit our Privacy Policy to learn more. By continuing to use the site, you agree to this use of cookies and data.
  • En Estados Unidos
  • Lista de países
  • Para 7 días
  • Temperatura del agua
  • Mapa Satelital
  • El tiempo en el mapa
  • Informadores
  • user-avatar
    Iniciar sesión

    Tiempo cada hora Washington

    Hoy, 27 Mayo, Lunes

    Tiempo Temperatura Precipitaciones Viento Presión Humedad
    00:00 +24°C° 0 mm 1 mps 753 mmHg 78%
    01:00 +23°C° 0 mm 1 mps 753 mmHg 81%
    02:00 +22°C° 0 mm 1 mps 753 mmHg 82%
    03:00 +22°C° 0 mm 1 mps 753 mmHg 84%
    04:00 +21°C° 0 mm 1 mps 753 mmHg 85%
    05:00 +21°C° 0 mm 2 mps 753 mmHg 83%
    06:00 +21°C° 0 mm 2 mps 753 mmHg 81%
    07:00 +23°C° 0 mm 2 mps 754 mmHg 78%
    08:00 +24°C° 0 mm 3 mps 754 mmHg 73%
    09:00 +26°C° 0 mm 3 mps 754 mmHg 68%
    10:00 +27°C° 0 mm 3 mps 754 mmHg 63%
    11:00 +28°C° 0 mm 3 mps 754 mmHg 60%
    12:00 +28°C° 0 mm 3 mps 754 mmHg 56%
    13:00 +29°C° 0 mm 2 mps 754 mmHg 53%
    14:00 +29°C° 0.1 mm 2 mps 753 mmHg 55%
    15:00 +29°C° 0.1 mm 2 mps 753 mmHg 57%
    16:00 +29°C° 0.1 mm 2 mps 753 mmHg 59%
    17:00 +28°C° 0.1 mm 2 mps 753 mmHg 63%
    18:00 +26°C° 0.1 mm 1 mps 753 mmHg 66%
    19:00 +25°C° 0.1 mm 1 mps 753 mmHg 69%
    20:00 +24°C° 0 mm 1 mps 753 mmHg 70%
    21:00 +23°C° 0 mm 1 mps 753 mmHg 71%
    22:00 +20°C° 0 mm 0 mps 754 mmHg 72%
    23:00 +22°C° 0 mm 1 mps 753 mmHg 72%

    Mañana, 28 Mayo, Martes

    Tiempo Temperatura Precipitaciones Viento Presión Humedad
    00:00 +22°C° 0 mm 1 mps 753 mmHg 72%
    01:00 +21°C° 0 mm 2 mps 753 mmHg 72%
    02:00 +21°C° 0.1 mm 2 mps 753 mmHg 77%
    03:00 +20°C° 0.1 mm 2 mps 753 mmHg 81%
    04:00 +20°C° 0.1 mm 2 mps 752 mmHg 86%
    05:00 +20°C° 1 mm 2 mps 752 mmHg 87%
    06:00 +21°C° 1 mm 3 mps 752 mmHg 89%
    07:00 +22°C° 1 mm 3 mps 752 mmHg 90%
    08:00 +24°C° 0.3 mm 3 mps 752 mmHg 84%
    09:00 +26°C° 0.3 mm 3 mps 751 mmHg 79%
    10:00 +27°C° 0.3 mm 4 mps 751 mmHg 73%
    11:00 +29°C° 0 mm 4 mps 751 mmHg 65%
    12:00 +32°C° 0 mm 4 mps 750 mmHg 58%
    13:00 +34°C° 0 mm 4 mps 750 mmHg 50%
    14:00 +34°C° 0 mm 4 mps 749 mmHg 49%
    15:00 +35°C° 0 mm 3 mps 748 mmHg 49%
    16:00 +35°C° 0 mm 3 mps 748 mmHg 48%
    17:00 +34°C° 0 mm 3 mps 748 mmHg 54%
    18:00 +31°C° 0 mm 2 mps 748 mmHg 60%
    19:00 +29°C° 0 mm 1 mps 748 mmHg 66%
    20:00 +29°C° 0 mm 1 mps 748 mmHg 68%
    21:00 +28°C° 0 mm 2 mps 749 mmHg 69%
    22:00 +27°C° 0 mm 2 mps 749 mmHg 71%
    23:00 +26°C° 0 mm 2 mps 749 mmHg 72%

    Pasado mañana, 29 Mayo, Miércoles

    Tiempo Temperatura Precipitaciones Viento Presión Humedad
    00:00 +26°C° 0 mm 1 mps 749 mmHg 73%
    01:00 +25°C° 0 mm 1 mps 749 mmHg 74%
    02:00 +25°C° 0 mm 1 mps 749 mmHg 74%
    03:00 +24°C° 0 mm 2 mps 749 mmHg 73%
    04:00 +24°C° 0 mm 2 mps 749 mmHg 72%
    05:00 +25°C° 0 mm 2 mps 749 mmHg 72%
    06:00 +26°C° 0 mm 2 mps 749 mmHg 72%
    07:00 +27°C° 0 mm 2 mps 749 mmHg 72%
    08:00 +28°C° 0 mm 3 mps 749 mmHg 67%
    09:00 +30°C° 0 mm 3 mps 749 mmHg 61%
    10:00 +31°C° 0 mm 3 mps 749 mmHg 56%
    11:00 +33°C° 0 mm 3 mps 749 mmHg 52%
    12:00 +35°C° 0 mm 3 mps 749 mmHg 48%
    13:00 +36°C° 0 mm 3 mps 749 mmHg 43%
    14:00 +36°C° 0 mm 2 mps 748 mmHg 46%
    15:00 +35°C° 0 mm 2 mps 748 mmHg 49%
    16:00 +35°C° 0 mm 2 mps 748 mmHg 52%
    17:00 +32°C° 0 mm 2 mps 749 mmHg 56%
    18:00 +31°C° 0 mm 3 mps 749 mmHg 60%
    19:00 +29°C° 0 mm 4 mps 749 mmHg 63%
    20:00 +28°C° 0 mm 3 mps 750 mmHg 64%
    21:00 +28°C° 0 mm 3 mps 750 mmHg 66%
    22:00 +27°C° 0 mm 2 mps 750 mmHg 67%
    23:00 +26°C° 0.3 mm 2 mps 750 mmHg 71%

    30 Mayo, Jueves

    Tiempo Temperatura Precipitaciones Viento Presión Humedad
    00:00 +25°C° 0.3 mm 2 mps 750 mmHg 74%
    01:00 +25°C° 0.3 mm 1 mps 750 mmHg 78%
    02:00 +24°C° 0.2 mm 1 mps 749 mmHg 80%
    03:00 +23°C° 0.2 mm 2 mps 749 mmHg 81%
    04:00 +23°C° 0.2 mm 2 mps 749 mmHg 83%
    05:00 +24°C° 0 mm 2 mps 750 mmHg 81%
    06:00 +25°C° 0 mm 2 mps 750 mmHg 79%
    07:00 +26°C° 0 mm 2 mps 750 mmHg 76%
    08:00 +27°C° 0 mm 2 mps 750 mmHg 70%
    09:00 +29°C° 0 mm 2 mps 751 mmHg 64%
    10:00 +31°C° 0 mm 3 mps 751 mmHg 58%
    11:00 +33°C° 0 mm 3 mps 750 mmHg 54%
    12:00 +34°C° 0 mm 2 mps 750 mmHg 50%
    13:00 +35°C° 0 mm 2 mps 750 mmHg 46%
    14:00 +35°C° 0 mm 2 mps 749 mmHg 48%
    15:00 +34°C° 0 mm 2 mps 749 mmHg 51%
    16:00 +34°C° 0 mm 2 mps 748 mmHg 53%
    17:00 +32°C° 0 mm 2 mps 748 mmHg 56%
    18:00 +31°C° 0 mm 2 mps 749 mmHg 58%
    19:00 +30°C° 0 mm 2 mps 749 mmHg 61%
    20:00 +28°C° 0.6 mm 1 mps 749 mmHg 68%
    21:00 +26°C° 0.6 mm 1 mps 749 mmHg 75%
    22:00 +24°C° 0.6 mm 1 mps 749 mmHg 83%
    23:00 +24°C° 0.3 mm 1 mps 748 mmHg 84%

    31 Mayo, Viernes

    Tiempo Temperatura Precipitaciones Viento Presión Humedad
    00:00 +24°C° 0.3 mm 1 mps 748 mmHg 85%
    01:00 +23°C° 0.3 mm 1 mps 748 mmHg 86%
    02:00 +23°C° 0 mm 1 mps 748 mmHg 86%
    03:00 +23°C° 0 mm 2 mps 748 mmHg 86%
    04:00 +21°C° 0 mm 2 mps 748 mmHg 85%
    05:00 +23°C° 0 mm 2 mps 748 mmHg 82%
    06:00 +24°C° 0 mm 2 mps 748 mmHg 80%
    07:00 +25°C° 0 mm 2 mps 748 mmHg 77%
    08:00 +27°C° 0 mm 3 mps 748 mmHg 69%
    09:00 +28°C° 0 mm 3 mps 748 mmHg 61%
    10:00 +30°C° 0 mm 4 mps 748 mmHg 54%
    11:00 +32°C° 0 mm 5 mps 748 mmHg 50%
    12:00 +33°C° 0 mm 5 mps 747 mmHg 45%
    13:00 +34°C° 0 mm 6 mps 747 mmHg 41%
    14:00 +34°C° 0 mm 5 mps 747 mmHg 43%
    15:00 +33°C° 0 mm 5 mps 747 mmHg 44%
    16:00 +33°C° 0 mm 5 mps 747 mmHg 46%
    17:00 +30°C° 0 mm 5 mps 748 mmHg 51%
    18:00 +28°C° 0 mm 5 mps 748 mmHg 57%
    19:00 +26°C° 0 mm 5 mps 749 mmHg 62%
    20:00 +23°C° 0 mm 4 mps 750 mmHg 64%
    21:00 +22°C° 0 mm 4 mps 750 mmHg 67%
    22:00 +21°C° 0 mm 3 mps 751 mmHg 69%
    23:00 +20°C° 0 mm 3 mps 751 mmHg 71%

    1 Junio, Sábado

    Tiempo Temperatura Precipitaciones Viento Presión Humedad
    00:00 +19°C° 0 mm 3 mps 751 mmHg 74%
    01:00 +19°C° 0 mm 2 mps 752 mmHg 76%
    02:00 +18°C° 0 mm 2 mps 752 mmHg 79%
    03:00 +19°C° 0 mm 1 mps 752 mmHg 81%
    04:00 +18°C° 0 mm 1 mps 752 mmHg 83%
    05:00 +17°C° 0 mm 0 mps 752 mmHg 79%
    06:00 +19°C° 0 mm 0 mps 753 mmHg 75%
    07:00 +20°C° 0 mm 0 mps 753 mmHg 71%
    08:00 +22°C° 0 mm 0 mps 753 mmHg 65%
    09:00 +26°C° 0 mm 1 mps 753 mmHg 58%
    10:00 +28°C° 0 mm 1 mps 753 mmHg 52%
    11:00 +29°C° 0 mm 1 mps 752 mmHg 48%
    12:00 +30°C° 0 mm 1 mps 752 mmHg 44%
    13:00 +31°C° 0 mm 1 mps 752 mmHg 40%
    14:00 +30°C° 0 mm 2 mps 751 mmHg 43%
    15:00 +30°C° 0 mm 2 mps 751 mmHg 47%
    16:00 +29°C° 0 mm 3 mps 751 mmHg 50%
    17:00 +28°C° 0.1 mm 3 mps 751 mmHg 55%
    18:00 +27°C° 0.1 mm 2 mps 751 mmHg 60%
    19:00 +26°C° 0.1 mm 2 mps 751 mmHg 65%
    20:00 +25°C° 0.4 mm 2 mps 751 mmHg 68%
    21:00 +22°C° 0.4 mm 3 mps 751 mmHg 72%
    22:00 +21°C° 0.4 mm 3 mps 751 mmHg 75%
    23:00 +21°C° 0.1 mm 3 mps 750 mmHg 78%
    Mostrar más